FENGYUN 1C DEB

Satellite information

Favourite Embed

Satellite Type and Status

DEBRISIN ORBIT

Key statistics

Satellite FENGYUN 1C DEB at a glance.

Uptime

9660

Days in orbit

Revolutions

≈ 14.4

Per day

Orbit

SSO

Sun Synchronous Orbit

Inclination

98.6

Latest

Satellite identification and parameters

Extended collection of information and parameters for FENGYUN 1C DEB.

Object identification

Identified? True

Debris? True

Object name: FENGYUN 1C DEB

International designator: 1999-025BUU

Object number (NORAD): 31456

Object ID (CCSDS): 31456

Country: PEOPLES REPUBLIC OF CHINA (PRC)

Current information (Y/N): Y

RCS size: SMALL

Orbital parameters

Period: 99.864 minutes

Inclination: 98.5771 deg

SMA: 7130.156 km

Apoapsis: 802.08 km

Periapsis: 701.963 km

RAAN: 34.094 deg

Eccentricy: 0.00702066

Argument of periapsis: 118.4699 deg

Mean anomaly: 242.3586 deg

Mean motion: 14.41963178 rev/day

Mean motion (dot): 0.00005995 rev/day2

B* drag term: 0.0017878244 1/REarth

Two-line elements (TLE)

Creation date: Oct. 19, 2025, 10:30 a.m.

Reference frame: TEME

Reference center: EARTH

Epoch: Oct. 19, 2025, 12:43 a.m. UTC

TLE line 0: 0 FENGYUN 1C DEB

TLE line 1: 1 31456U 99025BUU 25292.03027131 .00005995 00000-0 17878-2 0 9992

TLE line 2: 2 31456 98.5771 34.0940 0070207 118.4699 242.3586 14.41963178966782

Live tracking on map

Real-time ground track for satellite FENGYUN 1C DEB.

In-orbit conjunctions

A list of the most updated potential collisions computed for object FENGYUN 1C DEB.

Target Orbit TCA Probability of collision Miss distance Type
CZ-6A DEB LEO 2025-04-06 11:41:04 0.0002459626 53.0 (m) DEBRIS
SL-14 R/B LEO 2025-03-17 09:54:35 0.0001353569 619.0 (m) ROCKET BODY
FENGYUN 1C DEB SSO 2024-06-17 20:18:49 0.001195877 26.0 (m) DEBRIS

Associated space launch

Chinese polar orbiting meteorological satellite

FENGYUN 1C DEB was lifted into orbit during the mission ‘Long March 4B | Feng Yun 1C’, on board a Long March 4B space rocket.

The launch took place on May 10, 1999, 1:33 a.m. from Launch Complex 7.

For more information about the launch, click the button.

Launch to space Long March 4B | Feng Yun 1C
Long March 4B | Feng Yun 1C

Agency: N/A

Status: Launch Successful

Launch date: May 10, 1999, 1:33 a.m. UTC

Rocket: Long March 4B

Launch pad: Launch Complex 7

Location: Taiyuan Satellite Launch Center, People's Republic of China

...

Latest news about this satellite

There are no fresh news available about this satellite. Check back as we update our databases every day.


Newsletter sign-up

Weekly statistics, charts and insights to help you stay on top of the space industry.